Voltar ao catálogo

STARLINK-37504

AtivoComunicaçõesSSO
NORAD 68913·PAYLOAD·🇺🇸 United States

Lançado Apr 30, 2026 de Vandenberg Space Force Base

Loading…

Próximas Passagens (próximas 24 horas)

TLE

AtualizadoSource: CelesTrak SupGP

Época: Sep 15, 2026, 03:39 UTC

1 68913C 26097U   26258.15256944 -.00047808  00000+0 -14830-2 0  2584
2 68913  97.2855  92.3688 0001538  96.3952 212.1063 15.33485177    12

Acompanhe STARLINK-37504 em tempo real com AllMySat

Download on the App Store